Powrót do katalogu

SL-8 DEB

AktywnyLEO
NORAD 22841·DEBRIS·🇷🇺 Russia

Wystrzelony Feb 12, 1991 z Plesetsk Cosmodrome

Loading…

Następne Przeloty (najbliższe 24 godziny)

TLE

ŚwieżeSource: Space-Track

Epoka: Sep 14, 2026, 05:27 UTC

1 22841U 91009CL  26257.22708663 -.00000002  00000-0  11389-3 0  9990
2 22841  74.0473 347.9903 0129510  45.2574 342.7895 12.22980486585619

Śledź SL-8 DEB w czasie rzeczywistym z AllMySat

Download on the App Store